Time,TemperatureF,DewpointF,PressureIn,WindDirection,WindDirectionDegrees,WindSpeedMPH,WindSpeedGustMPH,Humidity,HourlyPrecipIn,Conditions,Clouds,dailyrainin,SoftwareType,DateUTC
2013-07-19 00:00:00,69.4,66.4,30.39,NE,54,0.0,0.0,90,-99.99,,,0.00,VWS V14.01,2013-07-19 04:00:00,
2013-07-19 00:30:00,69.4,66.7,30.39,NE,51,0.0,0.0,91,-99.99,,,0.00,VWS V14.01,2013-07-19 04:30:00,
2013-07-19 01:00:00,69.6,66.9,30.36,East,82,0.0,4.9,91,-99.99,,,0.00,VWS V14.01,2013-07-19 05:00:00,
2013-07-19 01:30:00,69.8,67.1,30.36,SE,126,0.0,3.6,91,-99.99,,,0.00,VWS V14.01,2013-07-19 05:30:00,
2013-07-19 02:00:00,69.6,66.9,30.36,NE,45,0.0,6.7,91,-99.99,,,0.00,VWS V14.01,2013-07-19 06:00:00,
2013-07-19 02:30:00,69.1,66.3,30.36,NE,53,0.0,5.8,91,-99.99,,,0.00,VWS V14.01,2013-07-19 06:30:00,
2013-07-19 03:00:00,69.1,66.3,30.36,ENE,67,0.0,6.7,91,-99.99,,,0.00,VWS V14.01,2013-07-19 07:00:00,
2013-07-19 03:30:00,69.1,66.3,30.33,NE,50,0.0,5.4,91,-99.99,,,0.00,VWS V14.01,2013-07-19 07:30:00,
2013-07-19 04:00:00,69.1,66.3,30.33,NE,48,0.0,5.8,91,-99.99,,,0.00,VWS V14.01,2013-07-19 08:00:00,
2013-07-19 04:30:00,68.7,66.3,30.33,NNE,22,0.0,5.4,92,-99.99,,,0.00,VWS V14.01,2013-07-19 08:30:00,
2013-07-19 05:00:00,68.5,66.1,30.33,NE,36,0.0,5.8,92,-99.99,,,0.00,VWS V14.01,2013-07-19 09:00:00,
2013-07-19 05:30:00,68.4,65.9,30.33,NE,46,0.0,5.4,92,-99.99,,,0.00,VWS V14.01,2013-07-19 09:30:00,
2013-07-19 06:00:00,68.7,66.3,30.33,NNE,24,0.0,4.5,92,-99.99,,,0.00,VWS V14.01,2013-07-19 10:00:00,
2013-07-19 06:30:00,68.4,65.9,30.33,NNE,31,4.9,4.9,92,-99.99,,,0.00,VWS V14.01,2013-07-19 10:30:00,
2013-07-19 07:00:00,68.5,66.1,30.33,NE,40,0.0,5.4,92,-99.99,,,0.00,VWS V14.01,2013-07-19 11:00:00,
2013-07-19 07:30:00,68.4,65.9,30.33,NE,46,0.0,5.8,92,-99.99,,,0.00,VWS V14.01,2013-07-19 11:30:00,
2013-07-19 08:00:00,68.7,66.3,30.36,NE,42,0.0,5.8,92,-99.99,,,0.00,VWS V14.01,2013-07-19 12:00:00,
2013-07-19 08:30:00,69.4,67.0,30.36,NE,49,0.0,4.9,92,-99.99,,,0.00,VWS V14.01,2013-07-19 12:30:00,
2013-07-19 09:00:00,70.5,68.1,30.39,NE,41,0.0,4.5,92,-99.99,,,0.00,VWS V14.01,2013-07-19 13:00:00,
2013-07-19 09:30:00,71.6,69.2,30.39,South,176,0.0,4.5,92,-99.99,,,0.00,VWS V14.01,2013-07-19 13:30:00,
2013-07-19 10:00:00,72.5,70.1,30.39,South,173,0.0,0.0,92,-99.99,,,0.00,VWS V14.01,2013-07-19 14:00:00,
2013-07-19 10:30:00,73.8,71.0,30.39,South,173,0.0,0.0,91,-99.99,,,0.00,VWS V14.01,2013-07-19 14:30:00,
2013-07-19 11:00:00,74.3,71.5,30.39,SSW,197,0.0,0.0,91,-99.99,,,0.00,VWS V14.01,2013-07-19 15:00:00,
2013-07-19 11:30:00,75.6,72.4,30.39,SSW,210,0.0,3.1,90,-99.99,,,0.00,VWS V14.01,2013-07-19 15:30:00,
2013-07-19 12:00:00,77.2,73.3,30.39,WSW,252,0.0,4.0,88,-99.99,,,0.00,VWS V14.01,2013-07-19 16:00:00,
2013-07-19 12:30:00,79.3,73.4,30.39,WSW,243,0.0,0.0,82,-99.99,,,0.00,VWS V14.01,2013-07-19 16:30:00,
2013-07-19 13:00:00,79.0,70.4,30.36,SSW,203,0.0,3.1,75,-99.99,,,0.00,VWS V14.01,2013-07-19 17:00:00,
2013-07-19 13:30:00,81.9,67.1,30.36,SW,215,0.0,5.4,61,-99.99,,,0.00,VWS V14.01,2013-07-19 17:30:00,
2013-07-19 14:00:00,83.5,67.7,30.33,WSW,240,0.0,0.0,59,-99.99,,,0.00,VWS V14.01,2013-07-19 18:00:00,
2013-07-19 14:30:00,86.0,64.0,30.33,WNW,284,0.0,4.5,48,-99.99,,,0.00,VWS V14.01,2013-07-19 18:30:00,
2013-07-19 15:00:00,85.1,63.8,30.33,SW,233,0.0,0.0,49,-99.99,,,0.00,VWS V14.01,2013-07-19 19:00:00,
2013-07-19 15:30:00,85.3,62.2,30.30,SW,225,0.0,2.7,46,-99.99,,,0.00,VWS V14.01,2013-07-19 19:30:00,
2013-07-19 16:00:00,82.9,64.6,30.30,SW,233,0.0,2.7,54,-99.99,,,0.00,VWS V14.01,2013-07-19 20:00:00,
2013-07-19 16:30:00,83.1,65.8,30.27,SW,230,0.0,0.0,56,-99.99,,,0.00,VWS V14.01,2013-07-19 20:30:00,
2013-07-19 17:00:00,79.7,66.0,30.27,SW,229,0.0,0.0,63,-99.99,,,0.00,VWS V14.01,2013-07-19 21:00:00,
2013-07-19 17:30:00,79.0,67.1,30.27,SW,220,0.0,0.0,67,-99.99,,,0.00,VWS V14.01,2013-07-19 21:30:00,
2013-07-19 18:00:00,78.8,67.8,30.27,SW,217,0.0,0.0,69,-99.99,,,0.00,VWS V14.01,2013-07-19 22:00:00,
2013-07-19 18:30:00,78.4,68.3,30.27,SW,223,0.0,0.0,71,-99.99,,,0.00,VWS V14.01,2013-07-19 22:30:00,
2013-07-19 19:00:00,77.9,68.9,30.27,SW,215,0.0,0.0,74,-99.99,,,0.00,VWS V14.01,2013-07-19 23:00:00,
2013-07-19 19:30:00,77.4,66.8,30.27,NNE,16,0.0,0.0,70,-99.99,,,0.00,VWS V14.01,2013-07-19 23:30:00,
2013-07-19 20:00:00,75.6,65.9,30.24,NNE,17,0.0,0.0,72,-99.99,,,0.00,VWS V14.01,2013-07-20 00:00:00,
2013-07-19 20:30:00,74.5,65.7,30.27,NNE,16,0.0,0.0,74,-99.99,,,0.00,VWS V14.01,2013-07-20 00:30:00,
2013-07-19 21:00:00,73.9,65.5,30.27,SW,232,0.0,0.0,75,-99.99,,,0.00,VWS V14.01,2013-07-20 01:00:00,
2013-07-19 21:30:00,74.1,66.1,30.27,South,173,0.0,0.0,76,-99.99,,,0.00,VWS V14.01,2013-07-20 01:30:00,
2013-07-19 22:00:00,73.6,65.9,30.27,South,174,0.0,0.0,77,-99.99,,,0.00,VWS V14.01,2013-07-20 02:00:00,
2013-07-19 22:30:00,72.7,64.7,30.30,South,173,0.0,0.0,76,-99.99,,,0.00,VWS V14.01,2013-07-20 02:30:00,
2013-07-19 23:00:00,71.8,64.6,30.30,South,173,0.0,0.0,78,-99.99,,,0.00,VWS V14.01,2013-07-20 03:00:00,
2013-07-19 23:30:00,72.1,65.6,30.30,NE,43,0.0,0.0,80,-99.99,,,0.00,VWS V14.01,2013-07-20 03:30:00,